Location: Bratsk-Energetik
(56.3300°N, 101.7600°E)
Time: 21:54:02
(UTC+08:00)

ISS - Pass Details

Date: 17 July 2018
Orbit: 402 x 408 km, 51.6° (Epoch: 23 July)

Event Time Altitude Azimuth Distance (km) Brightness Sun altitude
Exits shadow 01:30:32 22° 191° (S) 936 -2.6 -12.3°
Maximum altitude 01:31:28 26° 162° (SSE) 844 -2.8 -12.3°
Drops below altitude 10° 01:34:17 10° 103° (ESE) 1,472 -1.1 -12.3°
Sets 01:36:34 0° 91° (E) 2,335 0.1 -12.3°
